Timeline UpdatesTrip UpdatesNews PostsPvt Posts♥♥Travel TipsAdmin PostsConv PostsFollowed PostsChat RequestsBlog PostsPNR Posts

Disclaimer
Search
 
 
Mon Nov 24, 2014 06:51:31 ISTHomeTrainsΣChainsAtlasPNRForumGalleryNewsFAQTripsMembersLoginFeedback
No Recent News for this Train
Other Trains in the News **new
Latest...
.
Mon Jul 28, 2014 (03:38PM)
⇐ Return Journey: Train# 59386-Slip

18238-Slip/Chhattisgarh Express Slip

Time-Table HAS CHANGED.
Sep 04 2014 (10:14PM)
Change Departure Station:
Change Arrival Station:
Post a Train Travel TipPost a Train Travel Tip **new
Post a Comment/Question/Picture/VideoPost a Comment/Question/Picture/Video
Pantry/Catering
✕ NO Pantry Car
✕ NO Catering
RSA - Rake Sharing
.
Rake/Coach Composition
Attached to 59385 Panchvalley Fast Passenger at Amla to run upto Chhindwara ; SP1(Itz attached at the end of the train)
Loco
ASR - NZM > TKD WDP4B/4D NZM-AMLA> AJNI WAP7 AMLA-CWA> RTM WDM3A
News    PNR    Forum    Time-Table    Availability    Fare Chart    Map    Arr/Dep History    Trips    Gallery    ΣChains    X/O    Timeline    
Travel Time: 30h 10m    57 halts    Distance: 1296 km    Avg Speed: 42 km/hr
Type: Mail/Express
Zone: CR/Central
Departs @ 22:20 (Avg 13m late)
Platform# 1
SMTWTFS
Ambala Cantt. Junction/UMB 
Arrives @ 04:30 +2 nights
Platform# 3
SMTWTFS
Chhindwara Junction/CWA 

57 halts. 182 intermediate Stations between Ambala Cantt. Junction and Chhindwara Junction

Show ALL intermediate Stations  Show Old Time-Table

#TrkCodeStation NameX/OArrivesAvgDepartsAvgHaltPFDay#KmSpeedElevZoneAddress
1/==/ASRAmritsar Junction (5)  -16:15+821-249.677233mNRAmritsar 143002, Punjab
2/==/JNLJandiala (2)  16:30+1716:32+172m21-230.480238mNRJandiala, Punjab
3/==/BEASBeas Junction (2)  16:50+2016:52+212m21-206.561238mNRBeas, Punjab
4/==/KREKartarpur (2)X  17:13+1917:15+202m11-185.168236mNRKartarpur, Punjab
5/==/JUCJalandhar City Junction (5)X  17:27 17:28+2217:35 17:34+268 6m21-170.429239mNRJalandhar 144001, Punjab
6/==/JRCJalandhar Cantt. Junction (3)X  17:48 17:44+2517:50 17:46+292m21-165.665239mNRNear Rama Mandi, Punjab
7/==/PGWPhagwara Junction (3)  18:05 18:01+3118:07 18:03+312m11-149.345245mNRPhagwara, Punjab
8/==/GRYGoraya (2)XO  18:21 18:16+3018:23 18:18+362m11-139.427240mNRGoraya, Punjab
9/==/PHRPhillaur Junction (3)X  18:46+1918:48+202m11-126.746246mNRPhillaur, Punjab
10/==/LDHLudhiana Junction (7)X  19:05+2119:15+2410m11-113.622246mNRLudhiana 141001, Punjab
11/==/SNLSanehwal (3)X  19:56+619:58+92m21-98.555260mNRLudhiana, Punjab
12/==/DOADoraha (2)  20:06+1720:08+172m21-91.257261mNRDoraha, Punjab
13/==/CHAChawapail (2)  20:18+1820:20+182m21-81.766267mNRLudhiana, Punjab
14/==/KNNKhanna (3)  20:30+2020:32+202m21-70.854269mNRNH 1, Punjab
15/==/GVGMandi Gobindgarh (2)  20:41+2120:43+212m11-62.749268mNRMandi Gobindgarh, Punjab
16/==/SIRSirhind Junction (3)X  20:55+2120:57+212m21-52.965271mNRSirhind, Punjab
17/==/RPJRajpura Junction (3)X  21:20+2121:22+212m21-28.156272mNRNH-1., Punjab
18/==/UBCAmbala City (3)X  21:44+1821:46+182m11-7.621273mNRNH-1, Haryana
19/==/UMBAmbala Cantt. Junction (7)»X  22:08+1322:20+1312m110.068278mNRAmbala 133001, Haryana
20/==/RAABarara (2)  22:42+1922:44+192m1124.871279mNRBarara, Haryana
21/==/JUDWJagadhri Workshop (2)  23:02+2023:04+202m1146.043280mNRRailway Workshop Road, Haryana
22/==/JUDYamunanagar-Jagadhri (3)  23:11+2023:13+212m2151.035275mNRYamunanagar, Haryana
23/==/SRESaharanpur Junction (6)X  00:05+500:15+710m--281.268276mNRSaharanpur, Uttar Pradesh
24%--%DBDDeoband (2)  00:45+2100:47+222m--2115.376258mNRSaharanpur, Uttar Pradesh
25%--%MOZMuzaffarnagar (3)  01:06+2401:08+242m--2139.478247mNRMuzaffarNagar, Uttar Pradesh
26%--%KATKhatauli (2)  01:34 01:25+2701:36 01:27+312m--2161.577239mNRKhatauli, Uttar Pradesh
27%--%DRLADaurala (1)  01:56 01:41+3401:58 01:43+342m12179.551232mNRMeerut, Uttar Pradesh
28%--%MUTMeerut Cantt. (2)  02:09 01:56+3602:11 01:58+362m--2190.629230mNRMeerut, Uttar Pradesh
29%--%MTCMeerut City Junction (6)  02:20 02:07+3602:25 02:12+345m22195.069229mNRMeerut, Uttar Pradesh
30%==%MDNRModinagar (2)  02:39 02:29+3702:41 02:31+372m--2214.460221mNRGhaziabad, Uttar Pradesh
31%==%GUHGuldhar (2)  02:55 02:49+3602:57 02:51+352m--2232.516224mNRGhaziabad, Uttar Pradesh
32%==%GZBGhaziabad Junction (6)  03:28+1603:30+162m32242.245217mNRGhaziabad, Uttar Pradesh
33/==/SBBSahibabad Junction (5)  03:38 03:39+2303:40 03:41+222m--2248.933209mNRGhaziabad, Uttar Pradesh
34/==/NZMDelhi Hazrat Nizamuddin (7)X  04:15 04:10+2204:40+1925 30m22264.960209mNRNew Delhi 110013, Delhi NCT
35/==/BVHBallabgarh (5)X  05:09+2105:11+212m42293.842203mNRFaridabad, Haryana
36/==/PWLPalwal (8)X  05:41+905:43+112m42315.085200mNRPalwal, Haryana
37/==/KSVKosi Kalan (3)X  06:13+2206:15+232m22357.456189mNCRKosi Kalan, Uttar Pradesh
38/==/CHJChata (4)X  06:26+2406:28+252m--2367.769 NCRChhata, Uttar Pradesh
39/==/MTJMathura Junction (10)X  06:55+2807:00+285m12398.962179mNCRMathura, Uttar Pradesh
40/==/RKMRaja Ki Mandi (4)XO  07:56 07:48+4107:58 07:50+422m22448.66170mNCRAgra, Uttar Pradesh
41/==/AGCAgra Cantt. (6)X  08:30+2108:40 08:38+2510 8m12452.675174mNCRAgra, Uttar Pradesh
42/==/DHODholpur Junction (3)X  09:20+3309:22+472m32505.262177mNCRDholpur, Rajasthan
43/==/MRAMorena (3)X  09:48+5109:50+562m12532.072176mNCRMorena, Madhya Pradesh
44/==/BAOBanmorXO  10:04 10:06+5410:06 10:08+572m--2551.331189mNCRGwalior, Madhya Pradesh
45/==/GWLGwalior Junction (4)XO  10:45+4510:50+455m12570.663214mNCRGwalior, Madhya Pradesh
46/==/DBADabra (3)  11:28 11:30+4611:30 11:32+472m--2612.963 NCRDabra(District-Gwalior), Madhya Pradesh
47/==/SORSonagir (2)O  11:48 11:50+4611:50 11:52+472m--2631.730211mNCRDatia, Madhya Pradesh
48/==/DAADatia (2)X  12:13 12:15+4212:15 12:17+432m--2643.228264mNCRDatia, Madhya Pradesh
49/==/JHSJhansi Junction (7)  13:10+2413:20+2910m--2668.367259mNCRJhansi, Uttar Pradesh
50/==/BABBabina (3)X  13:43+3713:45+372m12693.852285mNCRBabina, Uttar Pradesh
51/==/BZYBasai (3)X  13:59+3814:01+422m12705.959287mNCR07522289600(Gate ManMob. - 9452701575), Madhya Pradesh
52/==/TBTTalbahat (4)X  14:15 14:14+4314:17 14:16+442m22718.7100314mNCRKhaniyadhana Station Rd, Madhya Pradesh
53/==/LARLalitpur (3)  14:46 14:40+5114:48 14:42+532m12758.691373mNCRLalitpur, Uttar Pradesh
54/==/JLNJakhalaun (3) new halt!!O  14:53+1:0114:55+1:032m--2775.446394mNCRLalitpur(05176-272220), Uttar Pradesh
55/==/DUADhaura (3)XO  15:08 15:10+1:0115:10 15:12+572m--2786.928407mNCRDhaura Tanda, Madhya Pradesh
56/==/BINABina Junction (5)X  16:25+3516:30+345m22821.569414mWCRJn Pt - KATNI/GUNA/ BPL/JHS, Madhya Pradesh
57/==/MABAMandi Bamora (3)XO  16:45+3916:47+402m22838.878413mWCRState Highway 14, Madhya Pradesh
58/==/BAQGanj Basoda (4)  17:09+4317:11+432m22867.384 WCRVidisha, Madhya Pradesh
59/==/BHSVidisha (3)X  17:39+4917:41+502m22906.654 WCRVidisha, Madhya Pradesh
60/==/BPLBhopal Junction (6)X  18:40+5118:45+515m12960.138497mWCRBhopal, Madhya Pradesh
61/==/HBJBhopal HabibGanj (5)  18:55+5618:57+572m--2966.443496mWCRHabibGanj, Madhya Pradesh
62/==/HBDHoshangabad (2)XO  20:30+4120:32+422m--21033.733308mWCRHoshangabad, Madhya Pradesh
63/==/ETItarsi Junction (7)X  21:10 21:05+3321:15+335 10m--21051.868329mWCRItarsi 461111, Madhya Pradesh
64/==/GDYAGhoradongri (3)X  22:17+5422:19+542m--21122.249 CRBetul, Madhya Pradesh
65/==/BZUBetul (3)  23:03+5623:05+572m--21158.146644mCRBetul, Madhya Pradesh
66/==/AMLAAmla Junction (5)23:35+4801:10+595m--21181.039733mCRAmla Distt. Betul, Madhya Pradesh
67|--|JMVJambara (1)  01:31-01:33-2m131194.750706mCRAmla, Madhya Pradesh
68|--|BCRDBarchi Road (1)O  01:41-01:43-2m131201.365713mCRState Highway 26, Madhya Pradesh
69|--|BXYBordhal (1)O  01:49-01:51-2m131207.846710mCRAmla, Madhya Pradesh
70|--|NVGNavegaon (1)  02:12-02:14-2m131223.856794mCRNayagaon, Madhya Pradesh
71|--|HRGHirdagarh (2)O  02:30-02:32-2m--31238.647721mCRDongar Parasia, Madhya Pradesh
72|--|JNOJunnor Deo (2)O  02:45-02:47-2m--31248.736762mCRDongar Parasia, Madhya Pradesh
73|--|IKRIklehra (1)  03:08-03:10-2m131261.342771mCRDongar Parasia, Madhya Pradesh
74|--|PUXParasia (2)O  03:19-03:21-2m--31267.5150775mCRDongar Parasia, Madhya Pradesh
75|--|KUXKhirsadoh Junction (2)  03:24-03:26-2m--31275.021769mCRChhindwara, Madhya Pradesh
76|--|GNWGangiwara (1)  03:48-03:50-2m131282.620714mCRChhindwara, Madhya Pradesh
77|--|CWAChhindwara Junction (3)•  04:30--331296.0-675mSECRNH 69A Seoni Road, Madhya Pradesh
Scroll to Top
Scroll to Bottom